Location: Kuffner-Sternwarte
(48.2130°N, 16.2960°E)
Time: 15:11:24
(UTC+02:00)

Tiangong - Visible Passes

Search period start: 20 September 2024 00:00
Search period end: 30 September 2024 00:00
Orbit: 373 x 377 km, 41.5° (Epoch: 18 September)

Date Brightness Start Highest point End Pass type
(mag) Time Alt. Az. Time Alt. Az. Time Alt. Az.
20 Sep -0.3 20:06:21 10° SSW 20:08:29 17° SSE 20:09:05 16° SSE visible
21 Sep -0.4 20:39:19 10° SW 20:41:13 21° SSW 20:41:13 21° SSW visible
22 Sep -0.4 19:36:43 10° SW 19:39:06 20° S 19:41:12 11° ESE visible
22 Sep 0.6 21:12:41 10° WSW 21:13:12 13° SW 21:13:12 13° SW visible
23 Sep -0.6 20:09:47 10° SW 20:12:20 23° S 20:13:06 21° SSE visible
24 Sep -0.1 20:43:10 10° WSW 20:44:54 19° SSW 20:44:54 19° SSW visible
25 Sep -0.4 19:40:02 10° WSW 19:42:33 22° S 19:44:38 12° SE visible
26 Sep 0.0 20:13:27 10° WSW 20:15:31 17° SSW 20:16:19 15° S visible
27 Sep -0.1 19:10:04 10° WSW 19:12:27 20° S 19:14:51 10° SE visible
28 Sep 0.4 19:43:38 10° SW 19:45:15 13° SSW 19:46:52 10° SSE visible
